Weather History for KOZR - January, 2015

Change the Weather History Date:

Monday, January 19, 2015

  Actual Average Record
Temperature  
Mean Temperature 48 °F -  
Max Temperature 68 °F 58 °F 75 °F (2002)
Min Temperature 29 °F 36 °F 21 °F (1997)
Degree Days  
Heating Degree Days 16    
Moisture  
Dew Point 28 °F    
Average Humidity 53    
Maximum Humidity 88    
Minimum Humidity 16    
Precipitation  
Precipitation 0.00 in - - ()
Sea Level Pressure  
Sea Level Pressure 30.15 in    
Wind  
Wind Speed 3 mph (SSW)    
Max Wind Speed 10 mph    
Max Gust Speed -    
Visibility 10 miles    
Events      
Averages and records for this station are not official NWS values.
T = Trace of Precipitation, MM = Missing Value Source: NWS Daily Summary

Daily Weather History Graph

Daily Weather History Graph

Search for Another Location

Airport or City:

Trip Planner

Search our weather history database for the weather conditions in past years. The results will help you decide how hot, cold, wet, or windy it might be!

Date:

Astronomy

Jan. 19, 2015 Rise Set
Actual Time 6:41 AM CST 5:06 PM CST
Civil Twilight 6:15 AM CST 5:32 PM CST
Nautical Twilight 5:45 AM CST 6:01 PM CST
Astronomical Twilight 5:16 AM CST 6:30 PM CST
Moon 5:34 AM CST (1/19) 4:31 PM CST (1/19)
Length of Visible Light 11h 16m
Length of Day
10h 24m
Waning Crescent, 1% of the Moon is Illuminated
Jan 19
Waning Crescent
Jan 20
New
Jan 26
First Quarter
Feb 3
Full
Feb 11
Last Quarter

Hourly Weather History & Observations

Time (CST) Temp. Dew Point Humidity Pressure Visibility Wind Dir Wind Speed Gust Speed Precip Events Conditions
12:58 AM 34.9 °F 29.7 °F 81% 30.20 in 10.0 mi Calm Calm - N/A   Clear
1:58 AM 33.4 °F 28.0 °F 81% 30.19 in 10.0 mi Calm Calm - N/A   Clear
2:58 AM 31.5 °F 27.7 °F 86% 30.19 in 10.0 mi Calm Calm - N/A   Clear
3:58 AM 31.5 °F 27.5 °F 85% 30.19 in 10.0 mi North 1.2 mph - N/A   Clear
4:58 AM 29.8 °F 26.6 °F 88% 30.20 in 10.0 mi Calm Calm - N/A   Clear
5:58 AM 30.2 °F 26.6 °F 86% 30.22 in 10.0 mi SSW 2.3 mph - N/A   Clear
6:58 AM 30.0 °F 27.0 °F 88% 30.22 in 10.0 mi SW 2.3 mph - N/A   Clear
7:58 AM 36.7 °F 32.4 °F 84% 30.23 in 10.0 mi Calm Calm - N/A   Clear
8:58 AM 48.2 °F 29.7 °F 49% 30.24 in 10.0 mi SSW 3.5 mph - N/A   Clear
9:58 AM 56.1 °F 25.7 °F 31% 30.24 in 10.0 mi SSW 3.5 mph - N/A   Clear
10:58 AM 60.4 °F 30.6 °F 32% 30.22 in 10.0 mi Variable 3.5 mph - N/A   Clear
11:58 AM 65.1 °F 26.1 °F 23% 30.17 in 10.0 mi South 9.2 mph - N/A   Clear
12:58 PM 67.6 °F 19.9 °F 16% 30.13 in 10.0 mi SSW 10.4 mph - N/A   Clear
1:58 PM 68.2 °F 21.6 °F 17% 30.10 in 10.0 mi SSW 8.1 mph - N/A   Clear
2:58 PM 68.9 °F 22.6 °F 17% 30.09 in 10.0 mi SSW 8.1 mph - N/A   Clear
3:58 PM 67.6 °F 25.5 °F 20% 30.09 in 9.0 mi SSW 6.9 mph - N/A   Clear
4:58 PM 64.0 °F 28.8 °F 26% 30.09 in 10.0 mi South 3.5 mph - N/A   Clear
5:58 PM 55.0 °F 31.8 °F 41% 30.10 in 10.0 mi SSW 3.5 mph - N/A   Clear
6:58 PM 53.6 °F 29.8 °F 40% 30.10 in 10.0 mi SW 8.1 mph - N/A   Clear
7:58 PM 51.6 °F 33.4 °F 50% 30.09 in 10.0 mi SSW 8.1 mph - N/A   Clear
8:58 PM 50.2 °F 33.8 °F 53% 30.10 in 10.0 mi SSW 8.1 mph - N/A   Clear
9:58 PM 48.0 °F 32.7 °F 55% 30.09 in 10.0 mi SSW 5.8 mph - N/A   Clear
10:58 PM 46.6 °F 32.9 °F 59% 30.08 in 10.0 mi South 5.8 mph - N/A   Clear
11:58 PM 43.2 °F 33.3 °F 68% 30.07 in 10.0 mi SSW 2.3 mph - N/A   Clear